NOAA 16 DEB

Satellite information

Favourite Embed

Satellite Type and Status

DEBRISIN ORBIT

Key statistics

Satellite NOAA 16 DEB at a glance.

Uptime

9158

Days in orbit

Revolutions

≈ 14.4

Per day

Orbit

SSO

Sun Synchronous Orbit

Inclination

98.8

Latest

Satellite identification and parameters

Extended collection of information and parameters for NOAA 16 DEB.

Object identification

Identified? True

Debris? True

Object name: NOAA 16 DEB

International designator: 2000-055SF

Object number (NORAD): 42387

Object ID (CCSDS): 42387

Country: UNITED STATES OF AMERICA (US)

Current information (Y/N): Y

RCS size: SMALL

Orbital parameters

Period: 100.023 minutes

Inclination: 98.828 deg

SMA: 7137.722 km

Apoapsis: 769.594 km

Periapsis: 749.581 km

RAAN: 44.9247 deg

Eccentricy: 0.00140195

Argument of periapsis: 240.1447 deg

Mean anomaly: 119.8347 deg

Mean motion: 14.39671065 rev/day

Mean motion (dot): 0.00008942 rev/day2

B* drag term: 0.0028665425 1/REarth

Two-line elements (TLE)

Creation date: Oct. 15, 2025, 2:21 a.m.

Reference frame: TEME

Reference center: EARTH

Epoch: Oct. 14, 2025, 6:25 p.m. UTC

TLE line 0: 0 NOAA 16 DEB

TLE line 1: 1 42387U 00055SF 25287.76767114 .00008942 00000-0 28665-2 0 9999

TLE line 2: 2 42387 98.8280 44.9247 0014020 240.1447 119.8347 14.39671065500280

Live tracking on map

Real-time ground track for satellite NOAA 16 DEB.

In-orbit conjunctions

A list of the most updated potential collisions computed for object NOAA 16 DEB.

Target Orbit TCA Probability of collision Miss distance Type
COSMOS 2251 DEB LEO 2025-06-14 15:35:09 0.000102143 283.0 (m) DEBRIS
QAEM 100 R/B LEO 2025-05-30 16:11:46 0.0001991944 274.0 (m) ROCKET BODY
NOAA 17 DEB SSO 2025-05-25 17:01:12 0.0001370522 85.0 (m) DEBRIS
CZ-6A DEB LEO 2025-01-26 00:56:09 0.0001819667 370.0 (m) DEBRIS
THOR ABLESTAR DEB LEO 2024-11-14 08:24:38 0.0001524776 220.0 (m) DEBRIS

Associated space launch

The NOAA K, L and M POES satellites begin the fifth generation of improved environmental monitoring in support of NOAA missions. The instrument payload has significant improvements and additions/deletions. The instrument changes have effected the spacecraft subsystems and data formats.

NOAA 16 DEB was lifted into orbit during the mission ‘Titan II SLV | NOAA 16’, on board a Titan II SLV space rocket.

The launch took place on Sept. 21, 2000, 10:22 a.m. from Space Launch Complex 4W.

For more information about the launch, click the button.

Launch to space Titan II SLV | NOAA 16
Titan II SLV | NOAA 16

Agency: N/A

Status: Launch Successful

Launch date: Sept. 21, 2000, 10:22 a.m. UTC

Rocket: Titan II SLV

Launch pad: Space Launch Complex 4W

Location: Vandenberg SFB, CA, USA

...

Latest news about this satellite

There are no fresh news available about this satellite. Check back as we update our databases every day.


Newsletter sign-up

Weekly statistics, charts and insights to help you stay on top of the space industry.